This demonstration page uses our WeatherBlox Daily Observations layout. Learn more.

Left ArrowRight Arrow

38.83388, -104.82136

Hourly Observations for August 31, 2022

Temp ( °F °C ) Dew Point ( °F °C ) Humidity (%) Winds ( mph kmh ) Pressure ( in mb ) Visibility ( mi km ) Precip ( " mm )
12:56 am 00:56 Clear 69 20.8 50 10 50 50 SSW 8 13 29.24 990 10 16 0.00 0.00
1:56 am 01:56 Partly Cloudy 69 20.8 49 9.7 49 49 SW 8 13 29.23 990 10 16 0.00 0.00
2:56 am 02:56 Clear 66 18.8 48 8.7 52 52 NNW 6 9 29.18 988 10 16 0.00 0.00
3:56 am 03:56 Clear 64 18 47 8.3 53 53 Calm 29.14 987 10 16 0.00 0.00
4:56 am 04:56 Clear 65 18.2 46 7.9 51 51 Calm 29.14 987 10 16 0.00 0.00
5:56 am 05:56 Mostly Cloudy 65 18.1 45 7.2 49 49 Calm 29.16 987 10 16 0.00 0.00
6:56 am 06:56 Partly Cloudy 66 18.9 46 7.6 48 48 Calm 29.19 988 10 16 0.00 0.00
7:56 am 07:56 Sunny 69 20.8 47 8.4 45 45 Calm 29.33 993 10 16 0.00 0.00
8:56 am 08:56 Sunny 73 22.6 50 10.1 45 45 ESE 3 6 29.41 996 10 16 0.00 0.00
9:56 am 09:56 Sunny 75 23.7 53 11.4 46 46 Calm 29.43 997 10 16 0.00 0.00
10:56 am 10:56 Mostly Cloudy 78 25.4 52 11.2 41 41 SE 7 11 29.41 996 9 14 0.00 0.00
11:56 am 11:56 Mostly Cloudy 78 25.3 51 10.3 39 39 Calm 29.41 996 10 16 0.00 0.00
12:56 pm 12:56 Mostly Cloudy 82 27.5 51 10.7 35 35 SSE 7 11 29.48 998 10 16 0.00 0.00
1:56 pm 13:56 Partly Cloudy 81 27.3 46 7.7 29 29 Calm 29.47 998 10 16 0.00 0.00
2:25 pm 14:25 Cloudy with Light Rain 79 26 50 10 37 37 ENE 6 9 29.45 997 10 16 0.00 0.00
2:56 pm 14:56 Cloudy with Light Rain 71 21.6 57 14 62 62 W 6 9 28.98 981 10 16 0.04 1.02
3:15 pm 15:15 Mostly Cloudy with Nearby Thunderstorms 75 24 54 12 47 47 NNW 5 7 28.99 982 10 16 0.00 0.00
3:26 pm 15:26 Cloudy with Thunderstorms 73 23 55 13 53 53 W 9 15 28.99 982 10 16 0.00 0.00
3:41 pm 15:41 Mostly Cloudy with Heavy Rain 66 19 55 13 68 68 SW 7 11 28.91 979 10 16 0.00 0.00
3:56 pm 15:56 Mostly Sunny 68 20.2 54 12.4 61 61 SW 6 9 28.94 980 10 16 0.08 2.03
4:56 pm 16:56 Partly Cloudy 70 20.9 51 10.7 52 52 WNW 3 6 29.03 983 10 16 0.00 0.00
5:56 pm 17:56 Mostly Cloudy 71 21.6 45 7.4 40 40 SSW 8 13 29.01 982 10 16 0.00 0.00
6:12 pm 18:12 Cloudy with Light Rain 70 21 50 10 49 49 WNW 7 11 29.06 984 10 16 0.00 0.00
6:22 pm 18:22 Cloudy 70 21 48 9 46 46 W 6 9 29.06 984 10 16 0.00 0.00
6:56 pm 18:56 Cloudy 69 20.3 51 10.4 53 53 NNW 7 11 29.07 985 10 16 0.01 0.13
7:56 pm 19:56 Mostly Cloudy 67 19.2 44 6.6 44 44 WNW 10 17 29.06 984 10 16 0.00 0.00
8:56 pm 20:56 Clear 68 19.8 46 7.5 45 45 WNW 9 15 29.03 983 10 16 0.00 0.00
9:56 pm 21:56 Mostly Clear 67 19.2 43 6.3 43 43 Calm 29.03 983 10 16 0.00 0.00
10:56 pm 22:56 Clear 67 19.5 41 5.2 39 39 Calm 29.03 983 10 16 0.00 0.00
11:16 pm 23:16 Clear 63 17 45 7 52 52 WSW 14 22 29.03 983 10 16 0.00 0.00
11:56 pm 23:56 Clear 63 17.2 44 6.4 49 49 S 5 7 29.02 983 10 16 0.00 0.00

Powered by AerisWeather